Terminal Aerodrome Forecast
Issued by NWS Sioux Falls, SD

Home | Current Version | Previous Version | Text Only | Print | Product List | Glossary On
Versions: 1 2 3 4 5 6 7 8 9 10 11 12 13 14 15 16 17
196
FTUS43 KFSD 241306 AAA
TAFHON
TAF AMD
KHON 241306Z 2413/2512 14013G18KT P6SM SCT080
     FM241400 15013G19KT P6SM SCT060 BKN200
     FM241800 16013G19KT P6SM SHRA VCTS OVC035CB
     FM242100 19012KT P6SM BKN040
     FM250000 20007KT P6SM SKC
     FM250300 23007KT P6SM SKC
     FM250500 26012KT P6SM SCT030=

USA.gov is the U.S. government's official web portal to all federal, state and local government web resources and services.